Fiddler 5 汉化中文.zip
下载
软件 工具 抓包
查看(89)

所属分类:安全技术 > 网络攻防
文件大小:6.84 MB
上传日期:2020-11-17 18:48
MD5:1fc9305acc************3d6b91d7ab
资源说明:中文版fiddler,用户http抓包,支持https解码。fiddler5是一款功能强大的抓包工具,是用C#写出来的,能够抓取所有HTTP以及HTTPS协议的数据包,也可以让你检查所有的http通讯,设置断点等。
移动页面: MIP AMP

[资源合计] 文件夹:9,文件:92

# 文件名称 大小 最后修改时间
1 Fiddler汉化中文升级版1 0 Bytes 2018/4/7 10:35:13
2 Fiddler汉化中文升级版1\App.ico 24.92 KB 2017/12/15 3:22:42
3 Fiddler汉化中文升级版1\Be.Windows.Forms.HexBox.dll 60.37 KB 2017/12/15 3:22:42
4 Fiddler汉化中文升级版1\Countdown.wav 1.37 KB 2017/12/15 3:22:42
5 Fiddler汉化中文升级版1\credits.txt 2.86 KB 2017/12/15 3:22:42
6 Fiddler汉化中文升级版1\ExecAction.exe 19.37 KB 2017/12/15 3:22:42
7 Fiddler汉化中文升级版1\Fiddler-中文版.exe 2.46 MB 2017/12/24 15:25:46
8 Fiddler汉化中文升级版1\Fiddler.exe.config 252 Bytes 2017/12/15 3:22:42
9 Fiddler汉化中文升级版1\Fiddler.pdb 1.23 MB 2017/12/15 3:24:32
10 Fiddler汉化中文升级版1\ForceCPU.exe 19.37 KB 2017/12/15 3:22:42
11 Fiddler汉化中文升级版1\ImportExport 0 Bytes 2018/4/3 8:55:43
12 Fiddler汉化中文升级版1\ImportExport\BasicFormats.dll 116.47 KB 2017/12/15 3:25:26
13 Fiddler汉化中文升级版1\ImportExport\BasicFormats.pdb 179.5 KB 2017/12/15 3:23:02
14 Fiddler汉化中文升级版1\ImportExport\VSWebTestExport.dll 48.97 KB 2017/12/15 3:25:36
15 Fiddler汉化中文升级版1\ImportExport\VSWebTestExport.pdb 97.5 KB 2017/12/15 3:23:04
16 Fiddler汉化中文升级版1\Inspectors 0 Bytes 2018/4/3 8:55:43
17 Fiddler汉化中文升级版1\Inspectors\JB.Fiddler.Inspectors.dll 18.5 KB 2016/7/7 18:53:31
18 Fiddler汉化中文升级版1\Inspectors\QWhale.Common.dll 200 KB 2016/7/7 18:53:30
19 Fiddler汉化中文升级版1\Inspectors\QWhale.Editor.dll 908 KB 2016/7/7 18:53:30
20 Fiddler汉化中文升级版1\Inspectors\QWhale.Syntax.dll 272 KB 2016/7/7 18:53:30
21 Fiddler汉化中文升级版1\Inspectors\QWhale.Syntax.Schemes.dll 284 KB 2016/7/7 18:53:31
22 Fiddler汉化中文升级版1\Inspectors\Standard.dll 287.5 KB 2017/5/20 18:13:56
23 Fiddler汉化中文升级版1\Inspectors\SyntaxView.dll 72 KB 2016/7/7 18:53:30
24 Fiddler汉化中文升级版1\license.txt 5.53 KB 2017/12/15 3:22:42
25 Fiddler汉化中文升级版1\LoadScript.wav 4.67 KB 2017/12/15 3:22:42
26 Fiddler汉化中文升级版1\LoadScriptError.wav 1.46 KB 2017/12/15 3:22:42
27 Fiddler汉化中文升级版1\makecert.exe 54.33 KB 2017/12/15 3:22:42
28 Fiddler汉化中文升级版1\ResponseTemplates 0 Bytes 2018/4/3 8:55:43
29 Fiddler汉化中文升级版1\ResponseTemplates\200_FiddlerGif.dat 433 Bytes 2017/12/15 3:22:42
30 Fiddler汉化中文升级版1\ResponseTemplates\200_SimpleHTML.dat 150 Bytes 2017/12/15 3:22:42
31 Fiddler汉化中文升级版1\ResponseTemplates\200_TransPixel.dat 173 Bytes 2017/12/15 3:22:42
32 Fiddler汉化中文升级版1\ResponseTemplates\204_NoContent.dat 106 Bytes 2017/12/15 3:22:42
33 Fiddler汉化中文升级版1\ResponseTemplates\302_Redirect.dat 165 Bytes 2017/12/15 3:22:42
34 Fiddler汉化中文升级版1\ResponseTemplates\303_RedirectWithGet.dat 175 Bytes 2017/12/15 3:22:42
35 Fiddler汉化中文升级版1\ResponseTemplates\304_NotModified.dat 108 Bytes 2017/12/15 3:22:42
36 Fiddler汉化中文升级版1\ResponseTemplates\307_RedirectWithMethod.dat 183 Bytes 2017/12/15 3:22:42
37 Fiddler汉化中文升级版1\ResponseTemplates\401_AuthBasic.dat 707 Bytes 2017/12/15 3:22:42
38 Fiddler汉化中文升级版1\ResponseTemplates\401_AuthDigest.dat 823 Bytes 2017/12/15 3:22:42
39 Fiddler汉化中文升级版1\ResponseTemplates\403_AuthDeny.dat 631 Bytes 2017/12/15 3:22:42
40 Fiddler汉化中文升级版1\ResponseTemplates\404_Plain.dat 652 Bytes 2017/12/15 3:22:42
41 Fiddler汉化中文升级版1\ResponseTemplates\407_ProxyAuthBasic.dat 719 Bytes 2017/12/15 3:22:42
42 Fiddler汉化中文升级版1\ResponseTemplates\502_Unreachable.dat 661 Bytes 2017/12/15 3:22:42
43 Fiddler汉化中文升级版1\saz.ico 11.23 KB 2017/12/15 3:22:42
44 Fiddler汉化中文升级版1\Screenshot.wav 12.78 KB 2017/12/15 3:22:42
45 Fiddler汉化中文升级版1\ScriptEditor 0 Bytes 2018/4/3 8:55:44
46 Fiddler汉化中文升级版1\ScriptEditor\EQATEC.Analytics.Monitor.dll 157 KB 2017/12/15 3:22:40
47 Fiddler汉化中文升级版1\ScriptEditor\FSE2.exe 62.47 KB 2017/12/15 3:26:38
48 Fiddler汉化中文升级版1\ScriptEditor\FSE2.exe.config 106 Bytes 2017/12/15 3:22:42
49 Fiddler汉化中文升级版1\ScriptEditor\QWhale.Common.dll 192 KB 2017/12/15 3:22:42
50 Fiddler汉化中文升级版1\ScriptEditor\QWhale.Editor.dll 816 KB 2017/12/15 3:22:42
51 Fiddler汉化中文升级版1\ScriptEditor\QWhale.Syntax.dll 228 KB 2017/12/15 3:22:42
52 Fiddler汉化中文升级版1\ScriptEditor\QWhale.Syntax.Parsers.dll 1.14 MB 2017/12/15 3:22:42
53 Fiddler汉化中文升级版1\Scripts 0 Bytes 2018/4/3 8:55:44
54 Fiddler汉化中文升级版1\Scripts\AustralianImages.dll 6 KB 2016/5/7 10:44:05
55 Fiddler汉化中文升级版1\Scripts\Compressibility.dll 29.5 KB 2016/7/7 18:53:31
56 Fiddler汉化中文升级版1\Scripts\Differ.dll 44 KB 2016/7/7 18:53:31
57 Fiddler汉化中文升级版1\Scripts\FiddlerOrchestra.Addon.dll 41.5 KB 2017/12/24 14:25:06
58 Fiddler汉化中文升级版1\Scripts\FiddlerOrchestra.Addon.pdb 63.5 KB 2017/12/15 3:19:34
59 Fiddler汉化中文升级版1\Scripts\FiddlerOrchestra.Connection.dll 1.66 MB 2017/12/24 14:25:06
60 Fiddler汉化中文升级版1\Scripts\FiddlerOrchestra.Protocol.dll 10.5 KB 2017/12/24 14:25:06
61 Fiddler汉化中文升级版1\Scripts\FiddlerOrchestra.Utilities.dll 6.5 KB 2017/12/24 14:25:06
62 Fiddler汉化中文升级版1\Scripts\Gallery.dll 37.5 KB 2016/7/7 18:53:31
63 Fiddler汉化中文升级版1\Scripts\ImageBloat.dll 18.5 KB 2016/7/7 18:53:31
64 Fiddler汉化中文升级版1\Scripts\JSFormat.dll 24.5 KB 2016/7/7 18:53:31
65 Fiddler汉化中文升级版1\Scripts\netstandard.dll 96.32 KB 2017/7/27 22:09:06
66 Fiddler汉化中文升级版1\Scripts\QWhale.Common.dll 200 KB 2017/5/20 20:09:40
67 Fiddler汉化中文升级版1\Scripts\QWhale.Editor.dll 816 KB 2017/3/22 0:19:22
68 Fiddler汉化中文升级版1\Scripts\QWhale.Syntax.dll 228 KB 2017/3/22 0:19:22
69 Fiddler汉化中文升级版1\Scripts\QWhale.Syntax.Parsers.dll 1.14 MB 2017/3/22 0:19:22
70 Fiddler汉化中文升级版1\Scripts\RulesTab2.dll 38.37 KB 2017/5/20 20:09:40
71 Fiddler汉化中文升级版1\Scripts\SampleRules.cs 23.64 KB 2017/12/15 3:22:42
72 Fiddler汉化中文升级版1\Scripts\SampleRules.js 21.84 KB 2016/12/15 15:08:34
73 Fiddler汉化中文升级版1\Scripts\SimpleFilter.dll 153.87 KB 2017/5/20 22:54:51
74 Fiddler汉化中文升级版1\Scripts\SimpleFilter.pdb 151.5 KB 2017/12/15 3:23:02
75 Fiddler汉化中文升级版1\Scripts\Timeline.dll 37.5 KB 2016/7/7 18:53:30
76 Fiddler汉化中文升级版1\Scripts\Timeline.pdb 35.5 KB 2017/12/15 3:23:04
77 Fiddler汉化中文升级版1\SetupHelper 21.97 KB 2017/12/15 3:27:06
78 Fiddler汉化中文升级版1\Telerik.Analytics.dll 105 KB 2017/12/15 3:22:42
79 Fiddler汉化中文升级版1\Tools 0 Bytes 2018/4/3 8:55:44
80 Fiddler汉化中文升级版1\Tools\Brotli.exe 732.2 KB 2017/12/15 3:22:42
81 Fiddler汉化中文升级版1\Tools\dwebp.exe 227 KB 2017/12/15 3:22:42
82 Fiddler汉化中文升级版1\Tools\JXR2PNG.exe 13.96 KB 2017/12/15 3:22:42
83 Fiddler汉化中文升级版1\Tools\JXR2PNG.exe.config 269 Bytes 2017/12/15 3:22:42
84 Fiddler汉化中文升级版1\Tools\PngDistill.exe 50.97 KB 2017/12/15 3:26:30
85 Fiddler汉化中文升级版1\Tools\PngDistill.pdb 21.5 KB 2017/12/15 3:23:04
86 Fiddler汉化中文升级版1\Tools\Zopfli.exe 162.34 KB 2017/12/15 3:22:42
87 Fiddler汉化中文升级版1\TrustCert.exe 25.47 KB 2017/12/15 3:26:14
88 Fiddler汉化中文升级版1\TrustCert.pdb 13.5 KB 2017/12/15 3:23:02
89 Fiddler汉化中文升级版1\uninst.exe 99.52 KB 2017/12/15 3:27:14
90 Fiddler汉化中文升级版1\Xceed.Compression.Formats.v5.4.dll 76 KB 2017/12/15 3:22:42
91 Fiddler汉化中文升级版1\Xceed.Compression.v5.4.dll 264 KB 2017/12/15 3:22:42
92 Fiddler汉化中文升级版1\Xceed.FileSystem.v5.4.dll 128 KB 2017/12/15 3:22:42
93 Fiddler汉化中文升级版1\Xceed.Zip.v5.4.dll 308 KB 2017/12/15 3:22:42
94 Fiddler汉化中文升级版1\新建文本文档.txt 0 Bytes 2018/4/7 10:35:13
95 Fiddler汉化中文升级版1\汉化截图 0 Bytes 2018/4/3 8:55:44
96 Fiddler汉化中文升级版1\汉化截图\QQ截图20171224150235.jpg 115.83 KB 2017/12/24 15:02:54
97 Fiddler汉化中文升级版1\汉化截图\QQ截图20171224150635.jpg 47.46 KB 2017/12/24 15:06:39
98 Fiddler汉化中文升级版1\证书插件 0 Bytes 2018/4/3 8:55:44
99 Fiddler汉化中文升级版1\证书插件\BCMakeCert.dll 473 KB 2017/5/20 21:38:41
100 Fiddler汉化中文升级版1\证书插件\CertMaker.dll 35.5 KB 2017/5/20 21:38:41
101 Fiddler汉化中文升级版1\证书插件\使用前必读.txt 117 Bytes 2017/5/20 22:19:02

请留下有营养的评论,广告灌水一律拉黑处理,谢谢合作!